<?xml version="1.0" encoding="UTF-8" standalone="no" ?>
<gpx xmlns="http://www.topografix.com/GPX/1/1" xmlns:xsi="http://www.w3.org/2001/XMLSchema-instance" xsi:schemaLocation="http://www.topografix.com/GPX/1/1 http://www.topografix.com/GPX/1/1/gpx.xsd" version="1.1" creator="VisuGPX - https://www.visugpx.com">
  <metadata>
    <name>Boucle 2 jours Saint-Guilhem</name>
    <desc><![CDATA[#fait]]></desc>
  </metadata>
  <wpt lat="43.83953" lon="3.48044">
    <ele>630.2</ele>
    <name><![CDATA[Les Besses]]></name>
  </wpt>
  <wpt lat="43.84383" lon="3.51206">
    <ele>581.6</ele>
    <name><![CDATA[Chapelle]]></name>
  </wpt>
  <wpt lat="43.83787" lon="3.50968">
    <ele>587.3</ele>
    <name><![CDATA[D25]]></name>
  </wpt>
  <wpt lat="43.82218" lon="3.52829">
    <ele>591.3</ele>
    <name><![CDATA[D130]]></name>
  </wpt>
  <wpt lat="43.81811" lon="3.53575">
    <ele>553</ele>
    <name><![CDATA[Le Coulet]]></name>
  </wpt>
  <wpt lat="43.79935" lon="3.55316">
    <ele>701.9</ele>
    <name><![CDATA[Carrefour GR GRP]]></name>
  </wpt>
  <wpt lat="43.77674" lon="3.53779">
    <ele>531</ele>
    <name><![CDATA[Gîte de Mas Aubert]]></name>
  </wpt>
  <wpt lat="43.75789" lon="3.53666">
    <ele>522.7</ele>
    <name><![CDATA[Cap de Ginestet]]></name>
  </wpt>
  <wpt lat="43.75424" lon="3.54307">
    <ele>388.9</ele>
    <name><![CDATA[Notre Dame de Belle Grâce]]></name>
  </wpt>
  <wpt lat="43.73449" lon="3.5476">
    <ele>103</ele>
    <name><![CDATA[Saint Guilhem le Désert]]></name>
  </wpt>
  <wpt lat="43.73456" lon="3.54814">
    <ele>102.3</ele>
    <name><![CDATA[Saint Guilhem le Désert]]></name>
  </wpt>
  <wpt lat="43.73633" lon="3.53762">
    <ele>267.2</ele>
    <name><![CDATA[Carrefour GR]]></name>
  </wpt>
  <wpt lat="43.74126" lon="3.50179">
    <ele>456.9</ele>
    <name><![CDATA[D122]]></name>
  </wpt>
  <wpt lat="43.73512" lon="3.49256">
    <ele>401.2</ele>
    <name><![CDATA[Gite du Font du Griffe]]></name>
  </wpt>
  <wpt lat="43.74284" lon="3.48548">
    <ele>834.5</ele>
    <name><![CDATA[Mont Saint-Baudille]]></name>
  </wpt>
  <wpt lat="43.75326" lon="3.47938">
    <ele>678.7</ele>
    <name><![CDATA[ D9E1D]]></name>
  </wpt>
  <wpt lat="43.75732" lon="3.46574">
    <ele>686.3</ele>
    <name><![CDATA[D9]]></name>
  </wpt>
  <wpt lat="43.77492" lon="3.4466">
    <ele>772.5</ele>
    <name><![CDATA[Carrefour GR]]></name>
  </wpt>
  <wpt lat="43.77886" lon="3.4557">
    <ele>789.3</ele>
    <name><![CDATA[Bergerie de Tedenat.]]></name>
  </wpt>
  <wpt lat="43.78961" lon="3.45956">
    <ele>630.6</ele>
    <name><![CDATA[La Vacquerie]]></name>
  </wpt>
  <wpt lat="43.81547" lon="3.47351">
    <ele>576.4</ele>
    <name><![CDATA[D25]]></name>
  </wpt>
  <wpt lat="43.84024" lon="3.48093">
    <ele>631.2</ele>
    <name><![CDATA[Les Besses]]></name>
  </wpt>
  <trk>
    <name><![CDATA[Les Besses- Saint-Guilhem]]></name>
    <extensions>
      <line xmlns="http://www.topografix.com/GPX/gpx_style/0/2">
        <color>0000FF</color>
        <width>4</width>
      </line>
    </extensions>
    <trkseg>
      <trkpt lat="43.83953" lon="3.48044">
        <ele>633</ele>
        <time>2021-10-21T20:50:13+02:00</time>
      </trkpt>
      <trkpt lat="43.83956" lon="3.48067">
        <ele>631</ele>
        <time>2021-10-21T20:50:18+02:00</time>
      </trkpt>
      <trkpt lat="43.83995" lon="3.48052">
        <ele>634</ele>
        <time>2021-10-21T20:50:23+02:00</time>
      </trkpt>
      <trkpt lat="43.84009" lon="3.48224">
        <ele>614</ele>
        <time>2021-10-21T20:50:28+02:00</time>
      </trkpt>
      <trkpt lat="43.8405" lon="3.48342">
        <ele>604</ele>
        <time>2021-10-21T20:50:33+02:00</time>
      </trkpt>
      <trkpt lat="43.84063" lon="3.48353">
        <ele>604</ele>
        <time>2021-10-21T20:50:38+02:00</time>
      </trkpt>
      <trkpt lat="43.84091" lon="3.48522">
        <ele>582</ele>
        <time>2021-10-21T20:50:43+02:00</time>
      </trkpt>
      <trkpt lat="43.84114" lon="3.48563">
        <ele>578</ele>
        <time>2021-10-21T20:50:48+02:00</time>
      </trkpt>
      <trkpt lat="43.84142" lon="3.48812">
        <ele>570</ele>
        <time>2021-10-21T20:50:53+02:00</time>
      </trkpt>
      <trkpt lat="43.84177" lon="3.48966">
        <ele>567</ele>
        <time>2021-10-21T20:50:58+02:00</time>
      </trkpt>
      <trkpt lat="43.84253" lon="3.49129">
        <ele>566</ele>
        <time>2021-10-21T20:51:03+02:00</time>
      </trkpt>
      <trkpt lat="43.84266" lon="3.49226">
        <ele>564</ele>
        <time>2021-10-21T20:51:08+02:00</time>
      </trkpt>
      <trkpt lat="43.84323" lon="3.49486">
        <ele>562</ele>
        <time>2021-10-21T20:51:13+02:00</time>
      </trkpt>
      <trkpt lat="43.84323" lon="3.49546">
        <ele>562</ele>
        <time>2021-10-21T20:51:18+02:00</time>
      </trkpt>
      <trkpt lat="43.84301" lon="3.49724">
        <ele>563</ele>
        <time>2021-10-21T20:51:23+02:00</time>
      </trkpt>
      <trkpt lat="43.84324" lon="3.49868">
        <ele>564</ele>
        <time>2021-10-21T20:51:28+02:00</time>
      </trkpt>
      <trkpt lat="43.8434" lon="3.50159">
        <ele>566</ele>
        <time>2021-10-21T20:51:33+02:00</time>
      </trkpt>
      <trkpt lat="43.84371" lon="3.50292">
        <ele>567</ele>
        <time>2021-10-21T20:51:38+02:00</time>
      </trkpt>
      <trkpt lat="43.84338" lon="3.50664">
        <ele>571</ele>
        <time>2021-10-21T20:51:43+02:00</time>
      </trkpt>
      <trkpt lat="43.84335" lon="3.50842">
        <ele>573</ele>
        <time>2021-10-21T20:51:48+02:00</time>
      </trkpt>
      <trkpt lat="43.84383" lon="3.51206">
        <ele>581</ele>
        <time>2021-10-21T20:51:53+02:00</time>
      </trkpt>
      <trkpt lat="43.84293" lon="3.51174">
        <ele>581</ele>
        <time>2021-10-21T20:51:58+02:00</time>
      </trkpt>
      <trkpt lat="43.84241" lon="3.51155">
        <ele>580</ele>
        <time>2021-10-21T20:52:03+02:00</time>
      </trkpt>
      <trkpt lat="43.84197" lon="3.51159">
        <ele>581</ele>
        <time>2021-10-21T20:52:08+02:00</time>
      </trkpt>
      <trkpt lat="43.84125" lon="3.51138">
        <ele>582</ele>
        <time>2021-10-21T20:52:13+02:00</time>
      </trkpt>
      <trkpt lat="43.84057" lon="3.51125">
        <ele>585</ele>
        <time>2021-10-21T20:52:18+02:00</time>
      </trkpt>
      <trkpt lat="43.83993" lon="3.51093">
        <ele>588</ele>
        <time>2021-10-21T20:52:23+02:00</time>
      </trkpt>
      <trkpt lat="43.83922" lon="3.51108">
        <ele>589</ele>
        <time>2021-10-21T20:52:28+02:00</time>
      </trkpt>
      <trkpt lat="43.83826" lon="3.50983">
        <ele>588</ele>
        <time>2021-10-21T20:52:33+02:00</time>
      </trkpt>
      <trkpt lat="43.83787" lon="3.50968">
        <ele>587</ele>
        <time>2021-10-21T20:52:38+02:00</time>
      </trkpt>
      <trkpt lat="43.83767" lon="3.50992">
        <ele>587</ele>
        <time>2021-10-21T20:52:43+02:00</time>
      </trkpt>
      <trkpt lat="43.83694" lon="3.50964">
        <ele>587</ele>
        <time>2021-10-21T20:52:48+02:00</time>
      </trkpt>
      <trkpt lat="43.83609" lon="3.50925">
        <ele>586</ele>
        <time>2021-10-21T20:52:53+02:00</time>
      </trkpt>
      <trkpt lat="43.83482" lon="3.50936">
        <ele>586</ele>
        <time>2021-10-21T20:52:58+02:00</time>
      </trkpt>
      <trkpt lat="43.83417" lon="3.50906">
        <ele>586</ele>
        <time>2021-10-21T20:53:03+02:00</time>
      </trkpt>
      <trkpt lat="43.83318" lon="3.5091">
        <ele>591</ele>
        <time>2021-10-21T20:53:08+02:00</time>
      </trkpt>
      <trkpt lat="43.83258" lon="3.50949">
        <ele>595</ele>
        <time>2021-10-21T20:53:13+02:00</time>
      </trkpt>
      <trkpt lat="43.83236" lon="3.50988">
        <ele>597</ele>
        <time>2021-10-21T20:53:18+02:00</time>
      </trkpt>
      <trkpt lat="43.83129" lon="3.51013">
        <ele>606</ele>
        <time>2021-10-21T20:53:23+02:00</time>
      </trkpt>
      <trkpt lat="43.83058" lon="3.51091">
        <ele>609</ele>
        <time>2021-10-21T20:53:28+02:00</time>
      </trkpt>
      <trkpt lat="43.8303" lon="3.51123">
        <ele>612</ele>
        <time>2021-10-21T20:53:33+02:00</time>
      </trkpt>
      <trkpt lat="43.82981" lon="3.5114">
        <ele>614</ele>
        <time>2021-10-21T20:53:38+02:00</time>
      </trkpt>
      <trkpt lat="43.8295" lon="3.51116">
        <ele>618</ele>
        <time>2021-10-21T20:53:43+02:00</time>
      </trkpt>
      <trkpt lat="43.8286" lon="3.51088">
        <ele>624</ele>
        <time>2021-10-21T20:53:48+02:00</time>
      </trkpt>
      <trkpt lat="43.82789" lon="3.51095">
        <ele>628</ele>
        <time>2021-10-21T20:53:53+02:00</time>
      </trkpt>
      <trkpt lat="43.82721" lon="3.51084">
        <ele>632</ele>
        <time>2021-10-21T20:53:58+02:00</time>
      </trkpt>
      <trkpt lat="43.82659" lon="3.51041">
        <ele>638</ele>
        <time>2021-10-21T20:54:03+02:00</time>
      </trkpt>
      <trkpt lat="43.82577" lon="3.51024">
        <ele>646</ele>
        <time>2021-10-21T20:54:08+02:00</time>
      </trkpt>
      <trkpt lat="43.82551" lon="3.51005">
        <ele>650</ele>
        <time>2021-10-21T20:54:13+02:00</time>
      </trkpt>
      <trkpt lat="43.82537" lon="3.51011">
        <ele>653</ele>
        <time>2021-10-21T20:54:18+02:00</time>
      </trkpt>
      <trkpt lat="43.82566" lon="3.51129">
        <ele>654</ele>
        <time>2021-10-21T20:54:23+02:00</time>
      </trkpt>
      <trkpt lat="43.82574" lon="3.51215">
        <ele>657</ele>
        <time>2021-10-21T20:54:28+02:00</time>
      </trkpt>
      <trkpt lat="43.82507" lon="3.51288">
        <ele>665</ele>
        <time>2021-10-21T20:54:33+02:00</time>
      </trkpt>
      <trkpt lat="43.82459" lon="3.51443">
        <ele>668</ele>
        <time>2021-10-21T20:54:38+02:00</time>
      </trkpt>
      <trkpt lat="43.82442" lon="3.51479">
        <ele>668</ele>
        <time>2021-10-21T20:54:43+02:00</time>
      </trkpt>
      <trkpt lat="43.82458" lon="3.51526">
        <ele>668</ele>
        <time>2021-10-21T20:54:48+02:00</time>
      </trkpt>
      <trkpt lat="43.82456" lon="3.51593">
        <ele>670</ele>
        <time>2021-10-21T20:54:53+02:00</time>
      </trkpt>
      <trkpt lat="43.82462" lon="3.51651">
        <ele>672</ele>
        <time>2021-10-21T20:54:58+02:00</time>
      </trkpt>
      <trkpt lat="43.82473" lon="3.51764">
        <ele>673</ele>
        <time>2021-10-21T20:55:03+02:00</time>
      </trkpt>
      <trkpt lat="43.82438" lon="3.51824">
        <ele>673</ele>
        <time>2021-10-21T20:55:08+02:00</time>
      </trkpt>
      <trkpt lat="43.82393" lon="3.5182">
        <ele>670</ele>
        <time>2021-10-21T20:55:13+02:00</time>
      </trkpt>
      <trkpt lat="43.824" lon="3.51797">
        <ele>669</ele>
        <time>2021-10-21T20:55:18+02:00</time>
      </trkpt>
      <trkpt lat="43.82355" lon="3.51724">
        <ele>661</ele>
        <time>2021-10-21T20:55:23+02:00</time>
      </trkpt>
      <trkpt lat="43.82317" lon="3.51715">
        <ele>657</ele>
        <time>2021-10-21T20:55:28+02:00</time>
      </trkpt>
      <trkpt lat="43.82219" lon="3.51762">
        <ele>647</ele>
        <time>2021-10-21T20:55:33+02:00</time>
      </trkpt>
      <trkpt lat="43.82181" lon="3.51762">
        <ele>643</ele>
        <time>2021-10-21T20:55:38+02:00</time>
      </trkpt>
      <trkpt lat="43.82156" lon="3.51728">
        <ele>640</ele>
        <time>2021-10-21T20:55:43+02:00</time>
      </trkpt>
      <trkpt lat="43.82123" lon="3.51721">
        <ele>637</ele>
        <time>2021-10-21T20:55:48+02:00</time>
      </trkpt>
      <trkpt lat="43.82097" lon="3.51745">
        <ele>634</ele>
        <time>2021-10-21T20:55:53+02:00</time>
      </trkpt>
      <trkpt lat="43.82088" lon="3.51814">
        <ele>633</ele>
        <time>2021-10-21T20:55:58+02:00</time>
      </trkpt>
      <trkpt lat="43.82054" lon="3.51863">
        <ele>632</ele>
        <time>2021-10-21T20:56:03+02:00</time>
      </trkpt>
      <trkpt lat="43.82037" lon="3.51979">
        <ele>627</ele>
        <time>2021-10-21T20:56:08+02:00</time>
      </trkpt>
      <trkpt lat="43.82064" lon="3.5202">
        <ele>626</ele>
        <time>2021-10-21T20:56:13+02:00</time>
      </trkpt>
      <trkpt lat="43.82092" lon="3.52112">
        <ele>620</ele>
        <time>2021-10-21T20:56:18+02:00</time>
      </trkpt>
      <trkpt lat="43.82146" lon="3.52206">
        <ele>612</ele>
        <time>2021-10-21T20:56:23+02:00</time>
      </trkpt>
      <trkpt lat="43.8215" lon="3.52251">
        <ele>606</ele>
        <time>2021-10-21T20:56:28+02:00</time>
      </trkpt>
      <trkpt lat="43.82216" lon="3.52507">
        <ele>596</ele>
        <time>2021-10-21T20:56:33+02:00</time>
      </trkpt>
      <trkpt lat="43.82224" lon="3.52515">
        <ele>596</ele>
        <time>2021-10-21T20:56:38+02:00</time>
      </trkpt>
      <trkpt lat="43.82242" lon="3.52567">
        <ele>597</ele>
        <time>2021-10-21T20:56:43+02:00</time>
      </trkpt>
      <trkpt lat="43.82216" lon="3.5261">
        <ele>593</ele>
        <time>2021-10-21T20:56:48+02:00</time>
      </trkpt>
      <trkpt lat="43.82208" lon="3.52713">
        <ele>590</ele>
        <time>2021-10-21T20:56:53+02:00</time>
      </trkpt>
      <trkpt lat="43.82229" lon="3.52764">
        <ele>593</ele>
        <time>2021-10-21T20:56:58+02:00</time>
      </trkpt>
      <trkpt lat="43.82218" lon="3.52829">
        <ele>592</ele>
        <time>2021-10-21T20:57:03+02:00</time>
      </trkpt>
      <trkpt lat="43.82153" lon="3.52865">
        <ele>587</ele>
        <time>2021-10-21T20:57:08+02:00</time>
      </trkpt>
      <trkpt lat="43.82114" lon="3.52852">
        <ele>583</ele>
        <time>2021-10-21T20:57:13+02:00</time>
      </trkpt>
      <trkpt lat="43.82049" lon="3.52874">
        <ele>579</ele>
        <time>2021-10-21T20:57:18+02:00</time>
      </trkpt>
      <trkpt lat="43.8202" lon="3.5294">
        <ele>576</ele>
        <time>2021-10-21T20:57:23+02:00</time>
      </trkpt>
      <trkpt lat="43.82035" lon="3.53009">
        <ele>575</ele>
        <time>2021-10-21T20:57:28+02:00</time>
      </trkpt>
      <trkpt lat="43.82018" lon="3.53071">
        <ele>571</ele>
        <time>2021-10-21T20:57:33+02:00</time>
      </trkpt>
      <trkpt lat="43.8204" lon="3.53153">
        <ele>569</ele>
        <time>2021-10-21T20:57:38+02:00</time>
      </trkpt>
      <trkpt lat="43.82116" lon="3.53254">
        <ele>569</ele>
        <time>2021-10-21T20:57:43+02:00</time>
      </trkpt>
      <trkpt lat="43.82116" lon="3.53286">
        <ele>569</ele>
        <time>2021-10-21T20:57:48+02:00</time>
      </trkpt>
      <trkpt lat="43.8208" lon="3.53322">
        <ele>566</ele>
        <time>2021-10-21T20:57:53+02:00</time>
      </trkpt>
      <trkpt lat="43.81985" lon="3.53342">
        <ele>558</ele>
        <time>2021-10-21T20:57:58+02:00</time>
      </trkpt>
      <trkpt lat="43.81953" lon="3.53359">
        <ele>556</ele>
        <time>2021-10-21T20:58:03+02:00</time>
      </trkpt>
      <trkpt lat="43.81811" lon="3.53575">
        <ele>554</ele>
        <time>2021-10-21T20:58:08+02:00</time>
      </trkpt>
      <trkpt lat="43.81787" lon="3.53588">
        <ele>554</ele>
        <time>2021-10-21T20:58:13+02:00</time>
      </trkpt>
      <trkpt lat="43.81787" lon="3.53663">
        <ele>556</ele>
        <time>2021-10-21T20:58:18+02:00</time>
      </trkpt>
      <trkpt lat="43.81783" lon="3.53704">
        <ele>556</ele>
        <time>2021-10-21T20:58:23+02:00</time>
      </trkpt>
      <trkpt lat="43.818" lon="3.53762">
        <ele>557</ele>
        <time>2021-10-21T20:58:28+02:00</time>
      </trkpt>
      <trkpt lat="43.81795" lon="3.5379">
        <ele>558</ele>
        <time>2021-10-21T20:58:33+02:00</time>
      </trkpt>
      <trkpt lat="43.81793" lon="3.53814">
        <ele>559</ele>
        <time>2021-10-21T20:58:38+02:00</time>
      </trkpt>
      <trkpt lat="43.81829" lon="3.53899">
        <ele>560</ele>
        <time>2021-10-21T20:58:43+02:00</time>
      </trkpt>
      <trkpt lat="43.81876" lon="3.53947">
        <ele>560</ele>
        <time>2021-10-21T20:58:48+02:00</time>
      </trkpt>
      <trkpt lat="43.81882" lon="3.53981">
        <ele>561</ele>
        <time>2021-10-21T20:58:53+02:00</time>
      </trkpt>
      <trkpt lat="43.81953" lon="3.54163">
        <ele>565</ele>
        <time>2021-10-21T20:58:58+02:00</time>
      </trkpt>
      <trkpt lat="43.81939" lon="3.54262">
        <ele>564</ele>
        <time>2021-10-21T20:59:03+02:00</time>
      </trkpt>
      <trkpt lat="43.81919" lon="3.54354">
        <ele>561</ele>
        <time>2021-10-21T20:59:08+02:00</time>
      </trkpt>
      <trkpt lat="43.81956" lon="3.54517">
        <ele>549</ele>
        <time>2021-10-21T20:59:13+02:00</time>
      </trkpt>
      <trkpt lat="43.81922" lon="3.54577">
        <ele>547</ele>
        <time>2021-10-21T20:59:18+02:00</time>
      </trkpt>
      <trkpt lat="43.81874" lon="3.54575">
        <ele>549</ele>
        <time>2021-10-21T20:59:23+02:00</time>
      </trkpt>
      <trkpt lat="43.81824" lon="3.54618">
        <ele>551</ele>
        <time>2021-10-21T20:59:28+02:00</time>
      </trkpt>
      <trkpt lat="43.81749" lon="3.54625">
        <ele>554</ele>
        <time>2021-10-21T20:59:33+02:00</time>
      </trkpt>
      <trkpt lat="43.81676" lon="3.54638">
        <ele>555</ele>
        <time>2021-10-21T20:59:38+02:00</time>
      </trkpt>
      <trkpt lat="43.8164" lon="3.5464">
        <ele>555</ele>
        <time>2021-10-21T20:59:43+02:00</time>
      </trkpt>
      <trkpt lat="43.81615" lon="3.54678">
        <ele>556</ele>
        <time>2021-10-21T20:59:48+02:00</time>
      </trkpt>
      <trkpt lat="43.816" lon="3.54743">
        <ele>562</ele>
        <time>2021-10-21T20:59:53+02:00</time>
      </trkpt>
      <trkpt lat="43.8155" lon="3.54773">
        <ele>566</ele>
        <time>2021-10-21T20:59:58+02:00</time>
      </trkpt>
      <trkpt lat="43.81509" lon="3.54758">
        <ele>566</ele>
        <time>2021-10-21T21:00:03+02:00</time>
      </trkpt>
      <trkpt lat="43.81422" lon="3.54796">
        <ele>575</ele>
        <time>2021-10-21T21:00:08+02:00</time>
      </trkpt>
      <trkpt lat="43.81369" lon="3.54794">
        <ele>577</ele>
        <time>2021-10-21T21:00:13+02:00</time>
      </trkpt>
      <trkpt lat="43.81301" lon="3.54831">
        <ele>583</ele>
        <time>2021-10-21T21:00:18+02:00</time>
      </trkpt>
      <trkpt lat="43.81218" lon="3.54914">
        <ele>598</ele>
        <time>2021-10-21T21:00:23+02:00</time>
      </trkpt>
      <trkpt lat="43.81142" lon="3.54964">
        <ele>606</ele>
        <time>2021-10-21T21:00:28+02:00</time>
      </trkpt>
      <trkpt lat="43.81077" lon="3.5502">
        <ele>612</ele>
        <time>2021-10-21T21:00:33+02:00</time>
      </trkpt>
      <trkpt lat="43.81049" lon="3.55069">
        <ele>620</ele>
        <time>2021-10-21T21:00:38+02:00</time>
      </trkpt>
      <trkpt lat="43.81007" lon="3.55054">
        <ele>620</ele>
        <time>2021-10-21T21:00:43+02:00</time>
      </trkpt>
      <trkpt lat="43.80939" lon="3.55075">
        <ele>625</ele>
        <time>2021-10-21T21:00:48+02:00</time>
      </trkpt>
      <trkpt lat="43.80911" lon="3.5514">
        <ele>633</ele>
        <time>2021-10-21T21:00:53+02:00</time>
      </trkpt>
      <trkpt lat="43.80923" lon="3.55266">
        <ele>647</ele>
        <time>2021-10-21T21:00:58+02:00</time>
      </trkpt>
      <trkpt lat="43.80999" lon="3.55453">
        <ele>664</ele>
        <time>2021-10-21T21:01:03+02:00</time>
      </trkpt>
      <trkpt lat="43.81067" lon="3.55665">
        <ele>672</ele>
        <time>2021-10-21T21:01:08+02:00</time>
      </trkpt>
      <trkpt lat="43.8105" lon="3.55655">
        <ele>673</ele>
        <time>2021-10-21T21:01:13+02:00</time>
      </trkpt>
      <trkpt lat="43.81013" lon="3.55648">
        <ele>678</ele>
        <time>2021-10-21T21:01:18+02:00</time>
      </trkpt>
      <trkpt lat="43.80971" lon="3.55657">
        <ele>682</ele>
        <time>2021-10-21T21:01:23+02:00</time>
      </trkpt>
      <trkpt lat="43.80931" lon="3.55685">
        <ele>684</ele>
        <time>2021-10-21T21:01:28+02:00</time>
      </trkpt>
      <trkpt lat="43.80847" lon="3.55689">
        <ele>686</ele>
        <time>2021-10-21T21:01:33+02:00</time>
      </trkpt>
      <trkpt lat="43.80799" lon="3.55676">
        <ele>686</ele>
        <time>2021-10-21T21:01:38+02:00</time>
      </trkpt>
      <trkpt lat="43.8079" lon="3.55631">
        <ele>691</ele>
        <time>2021-10-21T21:01:43+02:00</time>
      </trkpt>
      <trkpt lat="43.8073" lon="3.55599">
        <ele>694</ele>
        <time>2021-10-21T21:01:48+02:00</time>
      </trkpt>
      <trkpt lat="43.80659" lon="3.5561">
        <ele>694</ele>
        <time>2021-10-21T21:01:53+02:00</time>
      </trkpt>
      <trkpt lat="43.80575" lon="3.55629">
        <ele>692</ele>
        <time>2021-10-21T21:01:58+02:00</time>
      </trkpt>
      <trkpt lat="43.80533" lon="3.55571">
        <ele>693</ele>
        <time>2021-10-21T21:02:03+02:00</time>
      </trkpt>
      <trkpt lat="43.80504" lon="3.55487">
        <ele>696</ele>
        <time>2021-10-21T21:02:08+02:00</time>
      </trkpt>
      <trkpt lat="43.80431" lon="3.55466">
        <ele>697</ele>
        <time>2021-10-21T21:02:13+02:00</time>
      </trkpt>
      <trkpt lat="43.80369" lon="3.55472">
        <ele>698</ele>
        <time>2021-10-21T21:02:18+02:00</time>
      </trkpt>
      <trkpt lat="43.80305" lon="3.55481">
        <ele>698</ele>
        <time>2021-10-21T21:02:23+02:00</time>
      </trkpt>
      <trkpt lat="43.80226" lon="3.55474">
        <ele>699</ele>
        <time>2021-10-21T21:02:28+02:00</time>
      </trkpt>
      <trkpt lat="43.80194" lon="3.55444">
        <ele>701</ele>
        <time>2021-10-21T21:02:33+02:00</time>
      </trkpt>
      <trkpt lat="43.80137" lon="3.55419">
        <ele>701</ele>
        <time>2021-10-21T21:02:38+02:00</time>
      </trkpt>
      <trkpt lat="43.80116" lon="3.55386">
        <ele>701</ele>
        <time>2021-10-21T21:02:43+02:00</time>
      </trkpt>
      <trkpt lat="43.80051" lon="3.55316">
        <ele>702</ele>
        <time>2021-10-21T21:02:48+02:00</time>
      </trkpt>
      <trkpt lat="43.79985" lon="3.55329">
        <ele>702</ele>
        <time>2021-10-21T21:02:53+02:00</time>
      </trkpt>
      <trkpt lat="43.79935" lon="3.55316">
        <ele>704</ele>
        <time>2021-10-21T21:02:58+02:00</time>
      </trkpt>
      <trkpt lat="43.79904" lon="3.55268">
        <ele>706</ele>
        <time>2021-10-21T21:03:03+02:00</time>
      </trkpt>
      <trkpt lat="43.79852" lon="3.5523">
        <ele>705</ele>
        <time>2021-10-21T21:03:08+02:00</time>
      </trkpt>
      <trkpt lat="43.79825" lon="3.55174">
        <ele>708</ele>
        <time>2021-10-21T21:03:13+02:00</time>
      </trkpt>
      <trkpt lat="43.79749" lon="3.55116">
        <ele>708</ele>
        <time>2021-10-21T21:03:18+02:00</time>
      </trkpt>
      <trkpt lat="43.79723" lon="3.55039">
        <ele>710</ele>
        <time>2021-10-21T21:03:23+02:00</time>
      </trkpt>
      <trkpt lat="43.79681" lon="3.55013">
        <ele>710</ele>
        <time>2021-10-21T21:03:28+02:00</time>
      </trkpt>
      <trkpt lat="43.79599" lon="3.55002">
        <ele>709</ele>
        <time>2021-10-21T21:03:33+02:00</time>
      </trkpt>
      <trkpt lat="43.79584" lon="3.54957">
        <ele>712</ele>
        <time>2021-10-21T21:03:38+02:00</time>
      </trkpt>
      <trkpt lat="43.79543" lon="3.54854">
        <ele>719</ele>
        <time>2021-10-21T21:03:43+02:00</time>
      </trkpt>
      <trkpt lat="43.79478" lon="3.54792">
        <ele>724</ele>
        <time>2021-10-21T21:03:48+02:00</time>
      </trkpt>
      <trkpt lat="43.79441" lon="3.54721">
        <ele>731</ele>
        <time>2021-10-21T21:03:53+02:00</time>
      </trkpt>
      <trkpt lat="43.79351" lon="3.54648">
        <ele>737</ele>
        <time>2021-10-21T21:03:58+02:00</time>
      </trkpt>
      <trkpt lat="43.79286" lon="3.545">
        <ele>735</ele>
        <time>2021-10-21T21:04:03+02:00</time>
      </trkpt>
      <trkpt lat="43.79245" lon="3.54397">
        <ele>732</ele>
        <time>2021-10-21T21:04:08+02:00</time>
      </trkpt>
      <trkpt lat="43.79181" lon="3.54337">
        <ele>731</ele>
        <time>2021-10-21T21:04:13+02:00</time>
      </trkpt>
      <trkpt lat="43.79139" lon="3.54324">
        <ele>729</ele>
        <time>2021-10-21T21:04:18+02:00</time>
      </trkpt>
      <trkpt lat="43.79083" lon="3.54314">
        <ele>726</ele>
        <time>2021-10-21T21:04:23+02:00</time>
      </trkpt>
      <trkpt lat="43.79012" lon="3.54318">
        <ele>719</ele>
        <time>2021-10-21T21:04:28+02:00</time>
      </trkpt>
      <trkpt lat="43.78908" lon="3.54324">
        <ele>707</ele>
        <time>2021-10-21T21:04:33+02:00</time>
      </trkpt>
      <trkpt lat="43.78832" lon="3.54275">
        <ele>703</ele>
        <time>2021-10-21T21:04:38+02:00</time>
      </trkpt>
      <trkpt lat="43.7878" lon="3.54284">
        <ele>696</ele>
        <time>2021-10-21T21:04:43+02:00</time>
      </trkpt>
      <trkpt lat="43.7876" lon="3.54279">
        <ele>693</ele>
        <time>2021-10-21T21:04:48+02:00</time>
      </trkpt>
      <trkpt lat="43.78718" lon="3.54277">
        <ele>686</ele>
        <time>2021-10-21T21:04:53+02:00</time>
      </trkpt>
      <trkpt lat="43.78676" lon="3.54148">
        <ele>689</ele>
        <time>2021-10-21T21:04:58+02:00</time>
      </trkpt>
      <trkpt lat="43.78623" lon="3.54103">
        <ele>692</ele>
        <time>2021-10-21T21:05:03+02:00</time>
      </trkpt>
      <trkpt lat="43.78563" lon="3.54097">
        <ele>695</ele>
        <time>2021-10-21T21:05:08+02:00</time>
      </trkpt>
      <trkpt lat="43.78482" lon="3.5408">
        <ele>695</ele>
        <time>2021-10-21T21:05:13+02:00</time>
      </trkpt>
      <trkpt lat="43.78427" lon="3.54007">
        <ele>699</ele>
        <time>2021-10-21T21:05:18+02:00</time>
      </trkpt>
      <trkpt lat="43.78391" lon="3.53992">
        <ele>688</ele>
        <time>2021-10-21T21:05:23+02:00</time>
      </trkpt>
      <trkpt lat="43.78372" lon="3.53953">
        <ele>685</ele>
        <time>2021-10-21T21:05:28+02:00</time>
      </trkpt>
      <trkpt lat="43.78315" lon="3.53906">
        <ele>670</ele>
        <time>2021-10-21T21:05:33+02:00</time>
      </trkpt>
      <trkpt lat="43.78296" lon="3.53848">
        <ele>673</ele>
        <time>2021-10-21T21:05:38+02:00</time>
      </trkpt>
      <trkpt lat="43.78292" lon="3.53833">
        <ele>674</ele>
        <time>2021-10-21T21:05:43+02:00</time>
      </trkpt>
      <trkpt lat="43.78279" lon="3.53848">
        <ele>666</ele>
        <time>2021-10-21T21:05:48+02:00</time>
      </trkpt>
      <trkpt lat="43.78275" lon="3.53891">
        <ele>656</ele>
        <time>2021-10-21T21:05:53+02:00</time>
      </trkpt>
      <trkpt lat="43.78269" lon="3.5385">
        <ele>662</ele>
        <time>2021-10-21T21:05:58+02:00</time>
      </trkpt>
      <trkpt lat="43.78261" lon="3.53902">
        <ele>649</ele>
        <time>2021-10-21T21:06:03+02:00</time>
      </trkpt>
      <trkpt lat="43.78242" lon="3.53878">
        <ele>647</ele>
        <time>2021-10-21T21:06:08+02:00</time>
      </trkpt>
      <trkpt lat="43.7818" lon="3.53889">
        <ele>622</ele>
        <time>2021-10-21T21:06:13+02:00</time>
      </trkpt>
      <trkpt lat="43.78128" lon="3.53893">
        <ele>606</ele>
        <time>2021-10-21T21:06:18+02:00</time>
      </trkpt>
      <trkpt lat="43.78084" lon="3.53874">
        <ele>601</ele>
        <time>2021-10-21T21:06:23+02:00</time>
      </trkpt>
      <trkpt lat="43.78027" lon="3.53861">
        <ele>595</ele>
        <time>2021-10-21T21:06:28+02:00</time>
      </trkpt>
      <trkpt lat="43.7799" lon="3.53861">
        <ele>589</ele>
        <time>2021-10-21T21:06:33+02:00</time>
      </trkpt>
      <trkpt lat="43.77949" lon="3.53824">
        <ele>587</ele>
        <time>2021-10-21T21:06:38+02:00</time>
      </trkpt>
      <trkpt lat="43.77915" lon="3.53794">
        <ele>583</ele>
        <time>2021-10-21T21:06:43+02:00</time>
      </trkpt>
      <trkpt lat="43.77886" lon="3.53803">
        <ele>575</ele>
        <time>2021-10-21T21:06:48+02:00</time>
      </trkpt>
      <trkpt lat="43.7786" lon="3.53835">
        <ele>567</ele>
        <time>2021-10-21T21:06:53+02:00</time>
      </trkpt>
      <trkpt lat="43.7781" lon="3.53814">
        <ele>557</ele>
        <time>2021-10-21T21:06:58+02:00</time>
      </trkpt>
      <trkpt lat="43.77779" lon="3.53777">
        <ele>551</ele>
        <time>2021-10-21T21:07:03+02:00</time>
      </trkpt>
      <trkpt lat="43.77674" lon="3.53779">
        <ele>533</ele>
        <time>2021-10-21T21:07:08+02:00</time>
      </trkpt>
      <trkpt lat="43.77658" lon="3.53784">
        <ele>531</ele>
        <time>2021-10-21T21:07:13+02:00</time>
      </trkpt>
      <trkpt lat="43.77588" lon="3.53769">
        <ele>522</ele>
        <time>2021-10-21T21:07:18+02:00</time>
      </trkpt>
      <trkpt lat="43.77542" lon="3.53732">
        <ele>519</ele>
        <time>2021-10-21T21:07:23+02:00</time>
      </trkpt>
      <trkpt lat="43.77446" lon="3.53723">
        <ele>513</ele>
        <time>2021-10-21T21:07:28+02:00</time>
      </trkpt>
      <trkpt lat="43.77412" lon="3.5376">
        <ele>511</ele>
        <time>2021-10-21T21:07:33+02:00</time>
      </trkpt>
      <trkpt lat="43.77362" lon="3.53773">
        <ele>512</ele>
        <time>2021-10-21T21:07:38+02:00</time>
      </trkpt>
      <trkpt lat="43.77308" lon="3.53693">
        <ele>509</ele>
        <time>2021-10-21T21:07:43+02:00</time>
      </trkpt>
      <trkpt lat="43.77308" lon="3.53573">
        <ele>508</ele>
        <time>2021-10-21T21:07:48+02:00</time>
      </trkpt>
      <trkpt lat="43.77285" lon="3.53481">
        <ele>508</ele>
        <time>2021-10-21T21:07:53+02:00</time>
      </trkpt>
      <trkpt lat="43.77266" lon="3.53359">
        <ele>511</ele>
        <time>2021-10-21T21:07:58+02:00</time>
      </trkpt>
      <trkpt lat="43.77246" lon="3.53316">
        <ele>511</ele>
        <time>2021-10-21T21:08:03+02:00</time>
      </trkpt>
      <trkpt lat="43.77249" lon="3.53224">
        <ele>512</ele>
        <time>2021-10-21T21:08:08+02:00</time>
      </trkpt>
      <trkpt lat="43.7724" lon="3.53189">
        <ele>512</ele>
        <time>2021-10-21T21:08:13+02:00</time>
      </trkpt>
      <trkpt lat="43.77206" lon="3.53191">
        <ele>507</ele>
        <time>2021-10-21T21:08:18+02:00</time>
      </trkpt>
      <trkpt lat="43.77184" lon="3.53178">
        <ele>505</ele>
        <time>2021-10-21T21:08:23+02:00</time>
      </trkpt>
      <trkpt lat="43.77162" lon="3.53185">
        <ele>502</ele>
        <time>2021-10-21T21:08:28+02:00</time>
      </trkpt>
      <trkpt lat="43.77141" lon="3.53155">
        <ele>500</ele>
        <time>2021-10-21T21:08:33+02:00</time>
      </trkpt>
      <trkpt lat="43.77094" lon="3.53129">
        <ele>496</ele>
        <time>2021-10-21T21:08:38+02:00</time>
      </trkpt>
      <trkpt lat="43.77034" lon="3.53148">
        <ele>492</ele>
        <time>2021-10-21T21:08:43+02:00</time>
      </trkpt>
      <trkpt lat="43.77028" lon="3.53121">
        <ele>493</ele>
        <time>2021-10-21T21:08:48+02:00</time>
      </trkpt>
      <trkpt lat="43.76975" lon="3.53071">
        <ele>492</ele>
        <time>2021-10-21T21:08:53+02:00</time>
      </trkpt>
      <trkpt lat="43.76958" lon="3.53082">
        <ele>491</ele>
        <time>2021-10-21T21:08:58+02:00</time>
      </trkpt>
      <trkpt lat="43.76953" lon="3.53112">
        <ele>489</ele>
        <time>2021-10-21T21:09:03+02:00</time>
      </trkpt>
      <trkpt lat="43.76911" lon="3.53116">
        <ele>487</ele>
        <time>2021-10-21T21:09:08+02:00</time>
      </trkpt>
      <trkpt lat="43.76856" lon="3.53161">
        <ele>483</ele>
        <time>2021-10-21T21:09:13+02:00</time>
      </trkpt>
      <trkpt lat="43.76817" lon="3.53172">
        <ele>481</ele>
        <time>2021-10-21T21:09:18+02:00</time>
      </trkpt>
      <trkpt lat="43.76808" lon="3.53204">
        <ele>482</ele>
        <time>2021-10-21T21:09:23+02:00</time>
      </trkpt>
      <trkpt lat="43.76781" lon="3.53213">
        <ele>482</ele>
        <time>2021-10-21T21:09:28+02:00</time>
      </trkpt>
      <trkpt lat="43.76761" lon="3.53208">
        <ele>481</ele>
        <time>2021-10-21T21:09:33+02:00</time>
      </trkpt>
      <trkpt lat="43.76705" lon="3.53206">
        <ele>478</ele>
        <time>2021-10-21T21:09:38+02:00</time>
      </trkpt>
      <trkpt lat="43.76594" lon="3.53318">
        <ele>475</ele>
        <time>2021-10-21T21:09:43+02:00</time>
      </trkpt>
      <trkpt lat="43.7649" lon="3.5338">
        <ele>474</ele>
        <time>2021-10-21T21:09:48+02:00</time>
      </trkpt>
      <trkpt lat="43.76465" lon="3.53404">
        <ele>472</ele>
        <time>2021-10-21T21:09:53+02:00</time>
      </trkpt>
      <trkpt lat="43.76451" lon="3.53449">
        <ele>471</ele>
        <time>2021-10-21T21:09:58+02:00</time>
      </trkpt>
      <trkpt lat="43.76439" lon="3.53487">
        <ele>471</ele>
        <time>2021-10-21T21:10:03+02:00</time>
      </trkpt>
      <trkpt lat="43.76405" lon="3.53505">
        <ele>470</ele>
        <time>2021-10-21T21:10:08+02:00</time>
      </trkpt>
      <trkpt lat="43.76369" lon="3.53513">
        <ele>474</ele>
        <time>2021-10-21T21:10:13+02:00</time>
      </trkpt>
      <trkpt lat="43.76329" lon="3.5352">
        <ele>479</ele>
        <time>2021-10-21T21:10:18+02:00</time>
      </trkpt>
      <trkpt lat="43.76293" lon="3.5355">
        <ele>485</ele>
        <time>2021-10-21T21:10:23+02:00</time>
      </trkpt>
      <trkpt lat="43.76271" lon="3.53573">
        <ele>489</ele>
        <time>2021-10-21T21:10:28+02:00</time>
      </trkpt>
      <trkpt lat="43.76259" lon="3.53563">
        <ele>489</ele>
        <time>2021-10-21T21:10:33+02:00</time>
      </trkpt>
      <trkpt lat="43.76282" lon="3.53509">
        <ele>484</ele>
        <time>2021-10-21T21:10:38+02:00</time>
      </trkpt>
      <trkpt lat="43.7627" lon="3.53442">
        <ele>486</ele>
        <time>2021-10-21T21:10:43+02:00</time>
      </trkpt>
      <trkpt lat="43.76237" lon="3.5341">
        <ele>492</ele>
        <time>2021-10-21T21:10:48+02:00</time>
      </trkpt>
      <trkpt lat="43.76177" lon="3.53412">
        <ele>500</ele>
        <time>2021-10-21T21:10:53+02:00</time>
      </trkpt>
      <trkpt lat="43.76073" lon="3.5347">
        <ele>510</ele>
        <time>2021-10-21T21:10:58+02:00</time>
      </trkpt>
      <trkpt lat="43.76006" lon="3.53565">
        <ele>506</ele>
        <time>2021-10-21T21:11:03+02:00</time>
      </trkpt>
      <trkpt lat="43.75988" lon="3.53603">
        <ele>507</ele>
        <time>2021-10-21T21:11:08+02:00</time>
      </trkpt>
      <trkpt lat="43.75958" lon="3.53638">
        <ele>508</ele>
        <time>2021-10-21T21:11:13+02:00</time>
      </trkpt>
      <trkpt lat="43.75912" lon="3.53689">
        <ele>506</ele>
        <time>2021-10-21T21:11:18+02:00</time>
      </trkpt>
      <trkpt lat="43.75887" lon="3.53687">
        <ele>509</ele>
        <time>2021-10-21T21:11:23+02:00</time>
      </trkpt>
      <trkpt lat="43.7587" lon="3.53711">
        <ele>513</ele>
        <time>2021-10-21T21:11:28+02:00</time>
      </trkpt>
      <trkpt lat="43.75839" lon="3.53713">
        <ele>517</ele>
        <time>2021-10-21T21:11:33+02:00</time>
      </trkpt>
      <trkpt lat="43.75814" lon="3.53739">
        <ele>522</ele>
        <time>2021-10-21T21:11:38+02:00</time>
      </trkpt>
      <trkpt lat="43.75789" lon="3.53666">
        <ele>525</ele>
        <time>2021-10-21T21:11:43+02:00</time>
      </trkpt>
      <trkpt lat="43.75779" lon="3.53685">
        <ele>527</ele>
        <time>2021-10-21T21:11:48+02:00</time>
      </trkpt>
      <trkpt lat="43.75774" lon="3.53745">
        <ele>525</ele>
        <time>2021-10-21T21:11:53+02:00</time>
      </trkpt>
      <trkpt lat="43.75768" lon="3.53762">
        <ele>524</ele>
        <time>2021-10-21T21:11:58+02:00</time>
      </trkpt>
      <trkpt lat="43.75752" lon="3.53734">
        <ele>527</ele>
        <time>2021-10-21T21:12:03+02:00</time>
      </trkpt>
      <trkpt lat="43.75757" lon="3.53781">
        <ele>522</ele>
        <time>2021-10-21T21:12:08+02:00</time>
      </trkpt>
      <trkpt lat="43.7574" lon="3.53741">
        <ele>526</ele>
        <time>2021-10-21T21:12:13+02:00</time>
      </trkpt>
      <trkpt lat="43.7572" lon="3.53726">
        <ele>528</ele>
        <time>2021-10-21T21:12:18+02:00</time>
      </trkpt>
      <trkpt lat="43.75726" lon="3.53751">
        <ele>524</ele>
        <time>2021-10-21T21:12:23+02:00</time>
      </trkpt>
      <trkpt lat="43.75706" lon="3.53754">
        <ele>522</ele>
        <time>2021-10-21T21:12:28+02:00</time>
      </trkpt>
      <trkpt lat="43.75717" lon="3.53773">
        <ele>518</ele>
        <time>2021-10-21T21:12:33+02:00</time>
      </trkpt>
      <trkpt lat="43.75718" lon="3.53792">
        <ele>514</ele>
        <time>2021-10-21T21:12:38+02:00</time>
      </trkpt>
      <trkpt lat="43.75703" lon="3.53784">
        <ele>513</ele>
        <time>2021-10-21T21:12:43+02:00</time>
      </trkpt>
      <trkpt lat="43.75721" lon="3.5382">
        <ele>508</ele>
        <time>2021-10-21T21:12:48+02:00</time>
      </trkpt>
      <trkpt lat="43.75707" lon="3.53837">
        <ele>500</ele>
        <time>2021-10-21T21:12:53+02:00</time>
      </trkpt>
      <trkpt lat="43.75667" lon="3.53863">
        <ele>483</ele>
        <time>2021-10-21T21:12:58+02:00</time>
      </trkpt>
      <trkpt lat="43.75639" lon="3.53887">
        <ele>483</ele>
        <time>2021-10-21T21:13:03+02:00</time>
      </trkpt>
      <trkpt lat="43.75619" lon="3.53895">
        <ele>484</ele>
        <time>2021-10-21T21:13:08+02:00</time>
      </trkpt>
      <trkpt lat="43.75597" lon="3.53917">
        <ele>480</ele>
        <time>2021-10-21T21:13:13+02:00</time>
      </trkpt>
      <trkpt lat="43.75593" lon="3.5394">
        <ele>472</ele>
        <time>2021-10-21T21:13:18+02:00</time>
      </trkpt>
      <trkpt lat="43.75577" lon="3.53944">
        <ele>471</ele>
        <time>2021-10-21T21:13:23+02:00</time>
      </trkpt>
      <trkpt lat="43.75538" lon="3.5403">
        <ele>450</ele>
        <time>2021-10-21T21:13:28+02:00</time>
      </trkpt>
      <trkpt lat="43.75526" lon="3.54047">
        <ele>448</ele>
        <time>2021-10-21T21:13:33+02:00</time>
      </trkpt>
      <trkpt lat="43.75507" lon="3.54047">
        <ele>453</ele>
        <time>2021-10-21T21:13:38+02:00</time>
      </trkpt>
      <trkpt lat="43.75484" lon="3.5408">
        <ele>450</ele>
        <time>2021-10-21T21:13:43+02:00</time>
      </trkpt>
      <trkpt lat="43.75483" lon="3.54135">
        <ele>437</ele>
        <time>2021-10-21T21:13:48+02:00</time>
      </trkpt>
      <trkpt lat="43.75514" lon="3.5408">
        <ele>442</ele>
        <time>2021-10-21T21:13:53+02:00</time>
      </trkpt>
      <trkpt lat="43.75551" lon="3.54065">
        <ele>437</ele>
        <time>2021-10-21T21:13:58+02:00</time>
      </trkpt>
      <trkpt lat="43.75614" lon="3.54032">
        <ele>445</ele>
        <time>2021-10-21T21:14:03+02:00</time>
      </trkpt>
      <trkpt lat="43.75628" lon="3.54041">
        <ele>447</ele>
        <time>2021-10-21T21:14:08+02:00</time>
      </trkpt>
      <trkpt lat="43.75605" lon="3.54131">
        <ele>428</ele>
        <time>2021-10-21T21:14:13+02:00</time>
      </trkpt>
      <trkpt lat="43.75586" lon="3.54153">
        <ele>417</ele>
        <time>2021-10-21T21:14:18+02:00</time>
      </trkpt>
      <trkpt lat="43.75585" lon="3.542">
        <ele>415</ele>
        <time>2021-10-21T21:14:23+02:00</time>
      </trkpt>
      <trkpt lat="43.75555" lon="3.54307">
        <ele>409</ele>
        <time>2021-10-21T21:14:28+02:00</time>
      </trkpt>
      <trkpt lat="43.75537" lon="3.54329">
        <ele>404</ele>
        <time>2021-10-21T21:14:33+02:00</time>
      </trkpt>
      <trkpt lat="43.75526" lon="3.54318">
        <ele>403</ele>
        <time>2021-10-21T21:14:38+02:00</time>
      </trkpt>
      <trkpt lat="43.7552" lon="3.54305">
        <ele>403</ele>
        <time>2021-10-21T21:14:43+02:00</time>
      </trkpt>
      <trkpt lat="43.75453" lon="3.54318">
        <ele>393</ele>
        <time>2021-10-21T21:14:48+02:00</time>
      </trkpt>
      <trkpt lat="43.75424" lon="3.54307">
        <ele>393</ele>
        <time>2021-10-21T21:14:53+02:00</time>
      </trkpt>
      <trkpt lat="43.75365" lon="3.54326">
        <ele>393</ele>
        <time>2021-10-21T21:14:58+02:00</time>
      </trkpt>
      <trkpt lat="43.75324" lon="3.54372">
        <ele>386</ele>
        <time>2021-10-21T21:15:03+02:00</time>
      </trkpt>
      <trkpt lat="43.75245" lon="3.54421">
        <ele>393</ele>
        <time>2021-10-21T21:15:08+02:00</time>
      </trkpt>
      <trkpt lat="43.752" lon="3.54472">
        <ele>378</ele>
        <time>2021-10-21T21:15:13+02:00</time>
      </trkpt>
      <trkpt lat="43.75155" lon="3.54459">
        <ele>383</ele>
        <time>2021-10-21T21:15:18+02:00</time>
      </trkpt>
      <trkpt lat="43.75114" lon="3.54423">
        <ele>392</ele>
        <time>2021-10-21T21:15:23+02:00</time>
      </trkpt>
      <trkpt lat="43.75095" lon="3.54423">
        <ele>391</ele>
        <time>2021-10-21T21:15:28+02:00</time>
      </trkpt>
      <trkpt lat="43.75072" lon="3.54427">
        <ele>390</ele>
        <time>2021-10-21T21:15:33+02:00</time>
      </trkpt>
      <trkpt lat="43.75031" lon="3.54487">
        <ele>381</ele>
        <time>2021-10-21T21:15:38+02:00</time>
      </trkpt>
      <trkpt lat="43.75027" lon="3.54541">
        <ele>370</ele>
        <time>2021-10-21T21:15:43+02:00</time>
      </trkpt>
      <trkpt lat="43.74962" lon="3.54659">
        <ele>353</ele>
        <time>2021-10-21T21:15:48+02:00</time>
      </trkpt>
      <trkpt lat="43.74952" lon="3.54659">
        <ele>353</ele>
        <time>2021-10-21T21:15:53+02:00</time>
      </trkpt>
      <trkpt lat="43.7488" lon="3.54545">
        <ele>362</ele>
        <time>2021-10-21T21:15:58+02:00</time>
      </trkpt>
      <trkpt lat="43.7485" lon="3.54545">
        <ele>356</ele>
        <time>2021-10-21T21:16:03+02:00</time>
      </trkpt>
      <trkpt lat="43.74729" lon="3.54582">
        <ele>332</ele>
        <time>2021-10-21T21:16:08+02:00</time>
      </trkpt>
      <trkpt lat="43.74703" lon="3.54552">
        <ele>324</ele>
        <time>2021-10-21T21:16:13+02:00</time>
      </trkpt>
      <trkpt lat="43.7472" lon="3.54479">
        <ele>324</ele>
        <time>2021-10-21T21:16:18+02:00</time>
      </trkpt>
      <trkpt lat="43.74754" lon="3.54421">
        <ele>332</ele>
        <time>2021-10-21T21:16:23+02:00</time>
      </trkpt>
      <trkpt lat="43.74752" lon="3.54307">
        <ele>322</ele>
        <time>2021-10-21T21:16:28+02:00</time>
      </trkpt>
      <trkpt lat="43.74762" lon="3.54264">
        <ele>324</ele>
        <time>2021-10-21T21:16:33+02:00</time>
      </trkpt>
      <trkpt lat="43.74752" lon="3.54223">
        <ele>319</ele>
        <time>2021-10-21T21:16:38+02:00</time>
      </trkpt>
      <trkpt lat="43.7476" lon="3.54142">
        <ele>326</ele>
        <time>2021-10-21T21:16:43+02:00</time>
      </trkpt>
      <trkpt lat="43.74731" lon="3.54114">
        <ele>327</ele>
        <time>2021-10-21T21:16:48+02:00</time>
      </trkpt>
      <trkpt lat="43.74683" lon="3.54123">
        <ele>324</ele>
        <time>2021-10-21T21:16:53+02:00</time>
      </trkpt>
      <trkpt lat="43.74649" lon="3.54123">
        <ele>324</ele>
        <time>2021-10-21T21:16:58+02:00</time>
      </trkpt>
      <trkpt lat="43.74638" lon="3.54112">
        <ele>327</ele>
        <time>2021-10-21T21:17:03+02:00</time>
      </trkpt>
      <trkpt lat="43.7459" lon="3.54133">
        <ele>325</ele>
        <time>2021-10-21T21:17:08+02:00</time>
      </trkpt>
      <trkpt lat="43.7456" lon="3.54146">
        <ele>323</ele>
        <time>2021-10-21T21:17:13+02:00</time>
      </trkpt>
      <trkpt lat="43.74549" lon="3.54133">
        <ele>327</ele>
        <time>2021-10-21T21:17:18+02:00</time>
      </trkpt>
      <trkpt lat="43.74517" lon="3.54153">
        <ele>322</ele>
        <time>2021-10-21T21:17:23+02:00</time>
      </trkpt>
      <trkpt lat="43.74492" lon="3.54146">
        <ele>325</ele>
        <time>2021-10-21T21:17:28+02:00</time>
      </trkpt>
      <trkpt lat="43.74444" lon="3.54172">
        <ele>321</ele>
        <time>2021-10-21T21:17:33+02:00</time>
      </trkpt>
      <trkpt lat="43.74421" lon="3.54172">
        <ele>323</ele>
        <time>2021-10-21T21:17:38+02:00</time>
      </trkpt>
      <trkpt lat="43.74387" lon="3.542">
        <ele>318</ele>
        <time>2021-10-21T21:17:43+02:00</time>
      </trkpt>
      <trkpt lat="43.74356" lon="3.54185">
        <ele>317</ele>
        <time>2021-10-21T21:17:48+02:00</time>
      </trkpt>
      <trkpt lat="43.74329" lon="3.54223">
        <ele>315</ele>
        <time>2021-10-21T21:17:53+02:00</time>
      </trkpt>
      <trkpt lat="43.74304" lon="3.54234">
        <ele>309</ele>
        <time>2021-10-21T21:17:58+02:00</time>
      </trkpt>
      <trkpt lat="43.74255" lon="3.54301">
        <ele>298</ele>
        <time>2021-10-21T21:18:03+02:00</time>
      </trkpt>
      <trkpt lat="43.74225" lon="3.54391">
        <ele>293</ele>
        <time>2021-10-21T21:18:08+02:00</time>
      </trkpt>
      <trkpt lat="43.74194" lon="3.5444">
        <ele>286</ele>
        <time>2021-10-21T21:18:13+02:00</time>
      </trkpt>
      <trkpt lat="43.74199" lon="3.54406">
        <ele>286</ele>
        <time>2021-10-21T21:18:18+02:00</time>
      </trkpt>
      <trkpt lat="43.74201" lon="3.5438">
        <ele>287</ele>
        <time>2021-10-21T21:18:23+02:00</time>
      </trkpt>
      <trkpt lat="43.74188" lon="3.54359">
        <ele>283</ele>
        <time>2021-10-21T21:18:28+02:00</time>
      </trkpt>
      <trkpt lat="43.74188" lon="3.54311">
        <ele>282</ele>
        <time>2021-10-21T21:18:33+02:00</time>
      </trkpt>
      <trkpt lat="43.74182" lon="3.54296">
        <ele>281</ele>
        <time>2021-10-21T21:18:38+02:00</time>
      </trkpt>
      <trkpt lat="43.74154" lon="3.5435">
        <ele>276</ele>
        <time>2021-10-21T21:18:43+02:00</time>
      </trkpt>
      <trkpt lat="43.74151" lon="3.54309">
        <ele>276</ele>
        <time>2021-10-21T21:18:48+02:00</time>
      </trkpt>
      <trkpt lat="43.74137" lon="3.54331">
        <ele>274</ele>
        <time>2021-10-21T21:18:53+02:00</time>
      </trkpt>
      <trkpt lat="43.74125" lon="3.54299">
        <ele>274</ele>
        <time>2021-10-21T21:18:58+02:00</time>
      </trkpt>
      <trkpt lat="43.74125" lon="3.54341">
        <ele>273</ele>
        <time>2021-10-21T21:19:03+02:00</time>
      </trkpt>
      <trkpt lat="43.74091" lon="3.5438">
        <ele>265</ele>
        <time>2021-10-21T21:19:08+02:00</time>
      </trkpt>
      <trkpt lat="43.74081" lon="3.54432">
        <ele>258</ele>
        <time>2021-10-21T21:19:13+02:00</time>
      </trkpt>
      <trkpt lat="43.7405" lon="3.54444">
        <ele>252</ele>
        <time>2021-10-21T21:19:18+02:00</time>
      </trkpt>
      <trkpt lat="43.74025" lon="3.54477">
        <ele>246</ele>
        <time>2021-10-21T21:19:23+02:00</time>
      </trkpt>
      <trkpt lat="43.74019" lon="3.54586">
        <ele>236</ele>
        <time>2021-10-21T21:19:28+02:00</time>
      </trkpt>
      <trkpt lat="43.73998" lon="3.54627">
        <ele>229</ele>
        <time>2021-10-21T21:19:33+02:00</time>
      </trkpt>
      <trkpt lat="43.73926" lon="3.54706">
        <ele>219</ele>
        <time>2021-10-21T21:19:38+02:00</time>
      </trkpt>
      <trkpt lat="43.73926" lon="3.54723">
        <ele>219</ele>
        <time>2021-10-21T21:19:43+02:00</time>
      </trkpt>
      <trkpt lat="43.73905" lon="3.54747">
        <ele>218</ele>
        <time>2021-10-21T21:19:48+02:00</time>
      </trkpt>
      <trkpt lat="43.73856" lon="3.54818">
        <ele>207</ele>
        <time>2021-10-21T21:19:53+02:00</time>
      </trkpt>
      <trkpt lat="43.73807" lon="3.54908">
        <ele>195</ele>
        <time>2021-10-21T21:19:58+02:00</time>
      </trkpt>
      <trkpt lat="43.7379" lon="3.54912">
        <ele>193</ele>
        <time>2021-10-21T21:20:03+02:00</time>
      </trkpt>
      <trkpt lat="43.73796" lon="3.54865">
        <ele>192</ele>
        <time>2021-10-21T21:20:08+02:00</time>
      </trkpt>
      <trkpt lat="43.73773" lon="3.54923">
        <ele>192</ele>
        <time>2021-10-21T21:20:13+02:00</time>
      </trkpt>
      <trkpt lat="43.73776" lon="3.54884">
        <ele>188</ele>
        <time>2021-10-21T21:20:18+02:00</time>
      </trkpt>
      <trkpt lat="43.73793" lon="3.5482">
        <ele>188</ele>
        <time>2021-10-21T21:20:23+02:00</time>
      </trkpt>
      <trkpt lat="43.73793" lon="3.54771">
        <ele>184</ele>
        <time>2021-10-21T21:20:28+02:00</time>
      </trkpt>
      <trkpt lat="43.73779" lon="3.54738">
        <ele>171</ele>
        <time>2021-10-21T21:20:33+02:00</time>
      </trkpt>
      <trkpt lat="43.73776" lon="3.54792">
        <ele>177</ele>
        <time>2021-10-21T21:20:38+02:00</time>
      </trkpt>
      <trkpt lat="43.73756" lon="3.54835">
        <ele>173</ele>
        <time>2021-10-21T21:20:43+02:00</time>
      </trkpt>
      <trkpt lat="43.73737" lon="3.54863">
        <ele>172</ele>
        <time>2021-10-21T21:20:48+02:00</time>
      </trkpt>
      <trkpt lat="43.73734" lon="3.54824">
        <ele>161</ele>
        <time>2021-10-21T21:20:53+02:00</time>
      </trkpt>
      <trkpt lat="43.73717" lon="3.54871">
        <ele>166</ele>
        <time>2021-10-21T21:20:58+02:00</time>
      </trkpt>
      <trkpt lat="43.73672" lon="3.54893">
        <ele>157</ele>
        <time>2021-10-21T21:21:03+02:00</time>
      </trkpt>
      <trkpt lat="43.73638" lon="3.5491">
        <ele>156</ele>
        <time>2021-10-21T21:21:08+02:00</time>
      </trkpt>
      <trkpt lat="43.73612" lon="3.54878">
        <ele>138</ele>
        <time>2021-10-21T21:21:13+02:00</time>
      </trkpt>
      <trkpt lat="43.73596" lon="3.54869">
        <ele>132</ele>
        <time>2021-10-21T21:21:18+02:00</time>
      </trkpt>
      <trkpt lat="43.73559" lon="3.54882">
        <ele>131</ele>
        <time>2021-10-21T21:21:23+02:00</time>
      </trkpt>
      <trkpt lat="43.73598" lon="3.54835">
        <ele>120</ele>
        <time>2021-10-21T21:21:28+02:00</time>
      </trkpt>
      <trkpt lat="43.73574" lon="3.54839">
        <ele>119</ele>
        <time>2021-10-21T21:21:33+02:00</time>
      </trkpt>
      <trkpt lat="43.73543" lon="3.54833">
        <ele>115</ele>
        <time>2021-10-21T21:21:38+02:00</time>
      </trkpt>
      <trkpt lat="43.73525" lon="3.54814">
        <ele>113</ele>
        <time>2021-10-21T21:21:43+02:00</time>
      </trkpt>
      <trkpt lat="43.73509" lon="3.54833">
        <ele>113</ele>
        <time>2021-10-21T21:21:48+02:00</time>
      </trkpt>
      <trkpt lat="43.73495" lon="3.54805">
        <ele>111</ele>
        <time>2021-10-21T21:21:53+02:00</time>
      </trkpt>
      <trkpt lat="43.73472" lon="3.54814">
        <ele>111</ele>
        <time>2021-10-21T21:21:58+02:00</time>
      </trkpt>
      <trkpt lat="43.73458" lon="3.54751">
        <ele>112</ele>
        <time>2021-10-21T21:22:03+02:00</time>
      </trkpt>
      <trkpt lat="43.73441" lon="3.54768">
        <ele>113</ele>
        <time>2021-10-21T21:22:08+02:00</time>
      </trkpt>
      <trkpt lat="43.73449" lon="3.5476">
        <ele>113</ele>
        <time>2021-10-21T21:22:13+02:00</time>
        <extensions>
          <visugpx:TrkExtension xmlns:visugpx="https://www.visugpx.com/editgpx/">
            <visugpx:node>1</visugpx:node>
            </visugpx:TrkExtension>
        </extensions>
      </trkpt>
    </trkseg>
  </trk>
</gpx>